Hourly Data Report for October 25, 2013

All times are specified in Local Standard Time (LST). Add 1 hour to adjust for Daylight Saving Time where and when it is observed.

SAINT JOHN A
NEW BRUNSWICK

45°18'58.000" N
65°53'24.000" W
108.80 m
8104901
71609
YSJ

Download Data

Hourly Data (October 2013)
Hourly Data Report for October 25, 2013
Temp Definition
°C
Dew Point Temp Definition
°C
Rel Hum Definition
%
Wind Dir Definition
10's deg

Wind Spd Definition
km/h
Visibility Definition
km
Stn Press Definition
kPa
Hmdx Definition


Wind Chill Definition


Weather Definition


TIME
00:00 Legend Double Dagger 5.5 -2.1 58 26 22 24.1 99.19     LegendNANA
01:00 Legend Double Dagger 4.8 -2.1 61 27 12 24.1 99.26     LegendNANA
02:00 Legend Double Dagger 4.2 -1.8 65 25 12 24.1 99.31     Mostly Cloudy
03:00 Legend Double Dagger 3.6 -1.4 70 26 12 24.1 99.34     LegendNANA
04:00 Legend Double Dagger 3.6 -1.2 71 25 16 24.1 99.40     LegendNANA
05:00 Legend Double Dagger 3.1 -0.7 76 26 10 24.1 99.48     Mainly Clear
06:00 Legend Double Dagger 2.6 -0.7 79 26 10 24.1 99.54     LegendNANA
07:00 Legend Double Dagger 2.3 -0.6 81 26 8 24.1 99.61     LegendNANA
08:00 Legend Double Dagger 3.8 0.0 76 28 12 24.1 99.70     Mainly Clear
09:00 Legend Double Dagger 5.4 0.0 68 29 19 24.1 99.76     LegendNANA
10:00 Legend Double Dagger 7.0 0.0 61 29 15 24.1 99.77     LegendNANA
11:00 Legend Double Dagger 8.1 -0.4 55 30 19 24.1 99.77     Mainly Clear
12:00 Legend Double Dagger 8.2 -0.8 53 25 17 24.1 99.74     LegendNANA
13:00 Legend Double Dagger 8.7 -0.6 52 25 13 24.1 99.72     LegendNANA
14:00 Legend Double Dagger 9.7 0.1 51 26 15 24.1 99.72     Mostly Cloudy
15:00 Legend Double Dagger 8.9 -0.7 51 26 15 24.1 99.75     LegendNANA
16:00 Legend Double Dagger 9.5 -1.5 46 32 19 24.1 99.76     LegendNANA
17:00 Legend Double Dagger 7.3 -0.9 56 30 6 24.1 99.82     Mostly Cloudy
18:00 Legend Double Dagger 5.1 1.0 75 31 6 24.1 99.91     LegendNANA
19:00 Legend Double Dagger 4.8 0.9 76 27 5 24.1 99.98     LegendNANA
20:00 Legend Double Dagger 3.6 -1.2 71 32 8 24.1 100.01     Mainly Clear
21:00 Legend Double Dagger 4.4 -2.2 62 30 11 24.1 100.08     LegendNANA
22:00 Legend Double Dagger 3.6 -1.6 69 28 14 24.1 100.12     LegendNANA
23:00 Legend Double Dagger 2.8 -1.4 74 29 10 24.1 100.14     Clear

Notes on Data Quality.

Legend

  • E = Estimated
  • M = Missing
  • NA = Not Available
  • ‡ = Partner data that is not subject to review by the National Climate Archives
Date modified: